STARLINK-5501, 55648

Orbit data source: Space-Track

STARLINK-5501, 55648 is a payload satellite owned by SpaceX/Seattle (US) in LEO that was launched on Fri, 17 Feb 2023 UTC via an FALCON 9 launch vehicle from the Air Force Western Test Range (AFWTR). Payload-class satellites include a variety of spacecraft equipped with specific instruments for various scientific and technological missions. These include communications satellites like Starlink; space stations such as the ISS; scientific satellites like the Hubble; Earth observation satellites from companies like Planet Labs, Umbra, and HawkEye 360; GPS; miniature CubeSats for education and research; and military/defense satellites.

Loading next visibility...
Identifier
55648, 2023-021W
Orbit
LEO
Country
Flag of USUS
Related business
Manufacturer
SpaceX/Seattle
Mission
Operational Commercial Communications
Bus & Motor
STARLINK, Unknown motor
Mass
305 kg wet, ~290 kg dry
Launch date (UTC)
2023-02-17 (3 years ago)
Launch vehicle
FALCON 9
Launch site
Air Force Western Test Range (AFWTR)
Object type
Payload
Rocket body
Debris
Shape & HBR
Box + 1 Pan, 10.1 m
Radar Cross Section
13.562 m², Large (>1 m²)

Expand to show TLE details & history
Last TLE update: 2 days ago

TLE from 2 days ago
0 STARLINK-5501
1 55648U 23021W   26171.45419390 -.00000386  00000-0 -24587-4 0  9997
2 55648  69.9987 285.3822 0003382 269.5584  90.5188 14.98330768184185
Epoch: 2026-06-20T10:54Z
TLE epoch observation values (Epoch: 2026-06-20T10:54:02.352Z)
Latitude
-0.00001°
Longitude
-146.79619°
Altitude
574.499 km
Speed
7.574 km/s
True Right ascension
19h 01m 31s
True Declination
0° 00' 00"
Sunlit
Object was in full shadow at epoch
Visualization orbit readout
Latitude
Unknown
Longitude
Unknown
Altitude
Unknown
Speed
Unknown
Apparent Right ascension
Unknown
Apparent Declination
Unknown
Sunlit
N/A
Visualization observer readout
Local Sidereal Time
21:42:32
Azimuth
Unknown
Elevation
Unknown
Doppler factor
Unknown
Orbital elements
Apogee altitude
572.352 km
Perigee altitude
567.652 km
Semi-major axis
6,948.139 km
Eccentricity
0.00034
Inclination
69.9987°
RAAN
285.3822°
Arg. of periapsis
269.5584°
True anomaly
90.55755°
Mean anomaly
90.5188°
Eccentric anomaly
90.53818°
Mean motion
3.74749 °/min
Orbital period
96.06 mins
BSTAR
-0.000024587
Loading maneuver chart data...
Computing Atmospheric mass density...

Documentation

Showing up to 5 results
|